User: anonymous   Login
Location: ??????
(38.1303°N, 24.0039°E)
Time: 22:38:47
(UTC+00:00)
Language:

CZ-2D R/B - Orbit

View from above orbital plane
View from above orbital plane
View from above satellite
View from above satellite

Ground track
Ground track

The orbit data is extracted from the following two-line orbital elements,

1 37932U 11068C   21269.58042160  .00000031  00000-0  33696-4 0  9991
2 37932  98.6941 204.3118 0036687 194.6811 338.2964 14.22082846511292
Epoch (UTC): 26 September 2021 13:55:48
Eccentricity: 0.0036687
inclination: 98.6941°
perigee height: 792 km
apogee height: 845 km
right ascension of ascending node: 204.3118°
argument of perigee: 194.6811°
revolutions per day: 14.22082846
mean anomaly at epoch: 338.2964°
orbit number at epoch: 51129

The dashed part of the orbit path shows where the satellite is in the earth's shadow,  

DLR